(462048) = 2007 DT111

Discovered at Kitt Peak on 2007-02-25 by Spacewatch.

Orbit

Orbit type: Main Belt

Note: WebGL enabled browser required.

epoch2023-09-13.0
epoch JD2460200.5
perihelion date2022-05-20.13624
perihelion JD2459719.63624
argument of perihelion (°)282.76032
ascending node (°)358.67527
inclination (°)12.06803
eccentricity0.1903660
perihelion distance (AU)2.2674540
Tisserand w.r.t. Jupiter3.3
ΔV w.r.t. Earth (km/sec)10.2
semimajor axis (AU)2.8005916
mean anomaly (°)101.12330
mean daily motion (°/day)0.21029510
aphelion distance (AU)3.334
period (years)4.69
P-vector [x]0.19876443
P-vector [y]-0.79838770
P-vector [z]-0.56839228
Q-vector [x]0.98003538
Q-vector [y]0.15905954
Q-vector [z]0.11929260
absolute magnitude16.88
phase slope0.15
uncertainty0
referenceMPEC 2023-X62
observations used136
oppositions9
arc length (days)6126
first opposition used2007
last opposition used2023
residual rms (arc-secs)0.81
perturbers coarse indicatorM-v
perturbers precise indicator003Ek
first observation date used2007-02-25.0
last observation date used2023-12-04.0
computer nameMPCLINUX
Minimum Orbit Intersection Distances (in AU)
for orbit epoch: 2460200.5, reference: E2023-X62
Mercury1.81196
Venus1.55639
Earth1.28805
Mars0.88665
Jupiter2.01085
Saturn5.8491
Uranus15.3581
Neptune26.7992

Observations

137 total observations over interval: 2007 02 25.38887 – 2023 12 04.311146
These data are available for download (format description).

